Find Starlink 3139

NORAD ID: 49425 Int'l Des: 2021-104 Owner: SPXS Country: US Constellation: starlink operational
LEOCIRCULAR

实时位置

正在加载3D地球...

关于 Starlink 3139

正在加载描述...

即将过境

Passes for default location (London). Set your location on the main map for personalized predictions.

高度历史

Loading altitude history...

两行轨道根数

1 49425U 21104T 26124.91389484 -.00003238 00000-0 -18540-3 0 9992
2 49425 53.2188 336.7322 0001251 86.1187 273.9948 15.08854388247127
Epoch: May 4, 2026 • Age: 20 hours

当前状态

高度 541.1 km
速度 7.60 km/s
星下点 31.24°N, 1.77°W
发射日期 Nov 13, 2021
运行时间 4.4 years
类型 internet

技术详情

分类 Payload
质量 290.00 kg
干质量 270.00 kg
总质量 290.00 kg
长度 0.20 m
直径 2.80 m
跨度 9.00 m
形状 Box + pan
制造商 SPXS
平台类型 Starlink
阶段状态 In Orbit
所有者/国家 SPXS/US

Most Searched